Location: Peach Mountain Observatory
(42.3967°N, 83.9367°W)
Time: 17:53:02
(UTC-04:00)

deb Explorer IX - Pass Details

Date: 22 January 2020
Orbit: 547 x 1100 km, 38.8° (Epoch: 05 April)

Event Time Altitude Azimuth Distance (km) Brightness Sun altitude
Rises 00:23:22 0° 246° (WSW) 3,878 - -66.8°
Reaches altitude 10° 00:26:09 10° 242° (WSW) 2,943 - -67.0°
Maximum altitude 00:33:16 57° 166° (SSE) 1,266 - -67.2°
Drops below altitude 10° 00:40:08 10° 90° (E) 2,840 - -67.3°
Sets 00:42:47 0° 87° (E) 3,734 - -67.4°
